EVA108 RCKH-RJAA

Flight info

Callsign EVA108
Flight time 3h 5m
Altitude 33000
Route HCN2A HCN J7 PICHU Q13 IGURU Y57 YULIA Y89 GUPER Y81 RUTAS
Aircraft A321/M-SDE3FGHIRWY/LB1

Departure

Time 2026-04-15 09:58
Airport Kaohsiung International Airport (RCKH)

Arrival

Time 2026-04-15 13:04
Airport Narita International Airport (RJAA)
Time Latitude Longitude Altitude Speed Heading
2026-04-15 09:41 22.57322 120.34130 39 ft 0 kts 91°
2026-04-15 09:45 22.57322 120.34129 38 ft 0 kts 91°
2026-04-15 09:49 22.57322 120.34123 38 ft 3 kts 91°
2026-04-15 09:49 22.57323 120.34103 38 ft 3 kts 91°
2026-04-15 09:49 22.57323 120.34082 38 ft 3 kts 83°
2026-04-15 09:50 22.57324 120.34062 37 ft 3 kts 133°
2026-04-15 09:50 22.57339 120.34053 35 ft 1 kts 183°
2026-04-15 09:50 22.57348 120.34053 37 ft 2 kts 183°
2026-04-15 09:50 22.57364 120.34054 37 ft 2 kts 183°
2026-04-15 09:51 22.57380 120.34055 36 ft 2 kts 199°
2026-04-15 09:51 22.57394 120.34063 37 ft 2 kts 230°
2026-04-15 09:51 22.57404 120.34078 36 ft 2 kts 245°
2026-04-15 09:51 22.57408 120.34094 36 ft 2 kts 272°
2026-04-15 09:52 22.57408 120.34105 36 ft 0 kts 272°
2026-04-15 09:54 22.57409 120.34064 38 ft 11 kts 272°
2026-04-15 09:54 22.57412 120.33969 38 ft 12 kts 272°
2026-04-15 09:54 22.57415 120.33880 38 ft 11 kts 272°
2026-04-15 09:54 22.57418 120.33799 38 ft 10 kts 272°
2026-04-15 09:55 22.57420 120.33728 38 ft 9 kts 271°
2026-04-15 09:55 22.57452 120.33663 38 ft 14 kts 314°
2026-04-15 09:55 22.57541 120.33573 37 ft 18 kts 317°
2026-04-15 09:55 22.57639 120.33504 38 ft 16 kts 353°
2026-04-15 09:56 22.57739 120.33525 37 ft 13 kts 41°
2026-04-15 09:56 22.57750 120.33615 38 ft 11 kts 91°
2026-04-15 09:56 22.57748 120.33669 38 ft 0 kts 93°
2026-04-15 09:57 22.57747 120.33680 38 ft 7 kts 92°
2026-04-15 09:57 22.57740 120.33952 39 ft 72 kts 92°
2026-04-15 09:57 22.57716 120.34728 39 ft 132 kts 92°
2026-04-15 09:58 22.57680 120.35898 42 ft 177 kts 92°
2026-04-15 09:58 22.57636 120.37265 548 ft 178 kts 91°
2026-04-15 09:58 22.57540 120.38583 1118 ft 179 kts 106°
2026-04-15 09:58 22.56772 120.39593 1716 ft 178 kts 160°
2026-04-15 09:59 22.55576 120.39658 2068 ft 179 kts 204°
2026-04-15 09:59 22.54537 120.38847 2220 ft 194 kts 227°
2026-04-15 09:59 22.53496 120.37793 2266 ft 218 kts 225°
2026-04-15 09:59 22.52299 120.36598 2382 ft 243 kts 225°
2026-04-15 10:00 22.51085 120.35413 3188 ft 232 kts 224°
2026-04-15 10:00 22.49880 120.34247 3772 ft 233 kts 223°
2026-04-15 10:00 22.48662 120.33070 4248 ft 236 kts 224°
2026-04-15 10:00 22.47427 120.31874 4731 ft 238 kts 223°
2026-04-15 10:01 22.46187 120.30672 5220 ft 240 kts 223°
2026-04-15 10:01 22.44955 120.29477 5692 ft 242 kts 224°
2026-04-15 10:01 22.43697 120.28260 6176 ft 243 kts 224°
2026-04-15 10:01 22.42434 120.27040 6631 ft 244 kts 224°
2026-04-15 10:02 22.41162 120.25813 6962 ft 247 kts 224°
2026-04-15 10:02 22.39882 120.24580 7016 ft 246 kts 224°
2026-04-15 10:02 22.38606 120.23349 7021 ft 245 kts 224°
2026-04-15 10:02 22.37349 120.22136 7024 ft 244 kts 224°
2026-04-15 10:03 22.36077 120.20910 7025 ft 244 kts 224°
2026-04-15 10:03 22.34803 120.19682 7028 ft 244 kts 224°
2026-04-15 10:03 22.33546 120.18472 7027 ft 244 kts 224°
2026-04-15 10:03 22.32280 120.17252 7026 ft 244 kts 224°
2026-04-15 10:04 22.31010 120.16031 7034 ft 244 kts 223°
2026-04-15 10:04 22.29567 120.15053 7026 ft 248 kts 201°
2026-04-15 10:04 22.27896 120.14733 7308 ft 242 kts 181°
2026-04-15 10:04 22.26170 120.14791 7477 ft 257 kts 179°
2026-04-15 10:05 22.24315 120.14853 7616 ft 275 kts 179°
2026-04-15 10:05 22.22338 120.14924 7778 ft 292 kts 177°
2026-04-15 10:05 22.20321 120.15357 8187 ft 299 kts 160°
2026-04-15 10:05 22.18410 120.16221 8693 ft 302 kts 157°
2026-04-15 10:06 22.16461 120.17128 9232 ft 304 kts 157°
2026-04-15 10:06 22.14511 120.18035 9762 ft 306 kts 158°
2026-04-15 10:06 22.12555 120.18944 10163 ft 313 kts 158°
2026-04-15 10:06 22.10499 120.19898 10274 ft 330 kts 158°
2026-04-15 10:07 22.08333 120.20903 10394 ft 345 kts 158°
2026-04-15 10:07 22.06076 120.21948 10509 ft 360 kts 158°
2026-04-15 10:07 22.03726 120.23050 10627 ft 375 kts 155°
2026-04-15 10:07 22.01515 120.24572 10750 ft 388 kts 140°
2026-04-15 10:08 21.99655 120.26730 11046 ft 395 kts 125°
2026-04-15 10:08 21.98337 120.29355 11442 ft 399 kts 110°
2026-04-15 10:08 21.97670 120.32267 11859 ft 401 kts 96°
2026-04-15 10:08 21.97404 120.35230 12273 ft 404 kts 95°
2026-04-15 10:09 21.97144 120.38250 12695 ft 406 kts 95°
2026-04-15 10:09 21.96883 120.41298 13090 ft 410 kts 95°
2026-04-15 10:09 21.96613 120.44369 13489 ft 412 kts 96°
2026-04-15 10:09 21.96328 120.47455 13841 ft 416 kts 96°
2026-04-15 10:10 21.96033 120.50560 14196 ft 418 kts 96°
2026-04-15 10:10 21.95734 120.53686 14544 ft 420 kts 96°
2026-04-15 10:10 21.95430 120.56834 14874 ft 423 kts 96°
2026-04-15 10:10 21.95122 120.59990 15211 ft 425 kts 96°
2026-04-15 10:11 21.94815 120.63166 15520 ft 427 kts 96°
2026-04-15 10:11 21.94512 120.66325 15837 ft 430 kts 96°
2026-04-15 10:11 21.94203 120.69536 16156 ft 432 kts 96°
2026-04-15 10:11 21.93892 120.72765 16464 ft 435 kts 96°
2026-04-15 10:12 21.93579 120.76019 16765 ft 437 kts 96°
2026-04-15 10:12 21.93264 120.79300 17071 ft 440 kts 96°
2026-04-15 10:12 21.92986 120.82587 17362 ft 442 kts 92°
2026-04-15 10:12 21.93102 120.85875 17653 ft 444 kts 82°
2026-04-15 10:13 21.93644 120.89151 17928 ft 446 kts 78°
2026-04-15 10:13 21.94245 120.92436 18208 ft 448 kts 78°
2026-04-15 10:13 21.94844 120.95743 18459 ft 450 kts 78°
2026-04-15 10:13 21.95443 120.99070 18705 ft 452 kts 78°
2026-04-15 10:14 21.96041 121.02401 18959 ft 453 kts 78°
2026-04-15 10:14 21.96641 121.05753 19211 ft 455 kts 78°
2026-04-15 10:14 21.97232 121.09065 19462 ft 457 kts 78°
2026-04-15 10:14 21.97831 121.12441 19724 ft 459 kts 78°
2026-04-15 10:15 21.98558 121.15787 19955 ft 460 kts 71°
2026-04-15 10:15 21.99763 121.18986 20199 ft 460 kts 61°
2026-04-15 10:15 22.01428 121.21924 20436 ft 459 kts 52°
2026-04-15 10:15 22.03421 121.24619 20673 ft 460 kts 49°
2026-04-15 10:16 22.05441 121.27308 20923 ft 462 kts 49°
2026-04-15 10:16 22.07436 121.29981 21179 ft 463 kts 49°
2026-04-15 10:16 22.09458 121.32699 21410 ft 465 kts 49°
2026-04-15 10:16 22.11492 121.35429 21648 ft 467 kts 49°
2026-04-15 10:17 22.13530 121.38165 21880 ft 469 kts 49°
2026-04-15 10:17 22.15581 121.40919 22108 ft 470 kts 49°
2026-04-15 10:17 22.17636 121.43681 22331 ft 472 kts 49°
2026-04-15 10:17 22.19672 121.46422 22549 ft 474 kts 49°
2026-04-15 10:18 22.21748 121.49214 22784 ft 475 kts 49°
2026-04-15 10:18 22.23826 121.52013 22996 ft 477 kts 49°
2026-04-15 10:18 22.25904 121.54815 23229 ft 479 kts 49°
2026-04-15 10:18 22.27966 121.57599 23411 ft 481 kts 49°
2026-04-15 10:19 22.30061 121.60426 23593 ft 483 kts 49°
2026-04-15 10:19 22.32163 121.63259 23778 ft 484 kts 49°
2026-04-15 10:19 22.34282 121.66115 23950 ft 486 kts 49°
2026-04-15 10:19 22.36396 121.68967 24126 ft 487 kts 49°
2026-04-15 10:20 22.38518 121.71835 24295 ft 488 kts 49°
2026-04-15 10:20 22.40616 121.74675 24487 ft 490 kts 50°
2026-04-15 10:20 22.42743 121.77555 24650 ft 491 kts 49°
2026-04-15 10:20 22.44880 121.80441 24813 ft 492 kts 49°
2026-04-15 10:21 22.47029 121.83340 25006 ft 493 kts 49°
2026-04-15 10:21 22.49183 121.86247 25163 ft 495 kts 49°
2026-04-15 10:21 22.51341 121.89167 25329 ft 497 kts 49°
2026-04-15 10:21 22.53474 121.92063 25485 ft 498 kts 49°
2026-04-15 10:22 22.55641 121.95006 25665 ft 500 kts 49°
2026-04-15 10:22 22.57809 121.97950 25849 ft 501 kts 49°
2026-04-15 10:22 22.59984 122.00906 26094 ft 500 kts 49°
2026-04-15 10:22 22.62157 122.03859 26349 ft 500 kts 49°
2026-04-15 10:23 22.64323 122.06802 26594 ft 499 kts 49°
2026-04-15 10:23 22.66464 122.09714 26830 ft 499 kts 49°
2026-04-15 10:23 22.68630 122.12659 27080 ft 499 kts 49°
2026-04-15 10:23 22.70792 122.15600 27286 ft 499 kts 49°
2026-04-15 10:24 22.72957 122.18547 27512 ft 499 kts 49°
2026-04-15 10:24 22.75120 122.21493 27750 ft 499 kts 49°
2026-04-15 10:24 22.77284 122.24444 27991 ft 499 kts 49°
2026-04-15 10:24 22.79417 122.27354 28235 ft 499 kts 49°
2026-04-15 10:25 22.81578 122.30302 28475 ft 498 kts 49°
2026-04-15 10:25 22.83738 122.33249 28714 ft 498 kts 49°
2026-04-15 10:25 22.85899 122.36201 28949 ft 498 kts 49°
2026-04-15 10:25 22.88050 122.39146 29197 ft 497 kts 49°
2026-04-15 10:26 22.90169 122.42049 29419 ft 497 kts 49°
2026-04-15 10:26 22.92323 122.44995 29627 ft 497 kts 49°
2026-04-15 10:26 22.94477 122.47938 29838 ft 498 kts 49°
2026-04-15 10:26 22.96629 122.50879 30045 ft 497 kts 49°
2026-04-15 10:27 22.98051 122.52826 30176 ft 497 kts 49°
2026-04-15 10:27 23.00924 122.56766 30422 ft 497 kts 49°
2026-04-15 10:27 23.02346 122.58721 30543 ft 497 kts 49°
2026-04-15 10:27 23.04485 122.61664 30730 ft 497 kts 49°
2026-04-15 10:28 23.06634 122.64614 30926 ft 496 kts 49°
2026-04-15 10:28 23.08779 122.67556 31132 ft 495 kts 49°
2026-04-15 10:28 23.10895 122.70461 31285 ft 497 kts 49°
2026-04-15 10:28 23.13044 122.73421 31405 ft 498 kts 49°
2026-04-15 10:29 23.15190 122.76384 31544 ft 499 kts 49°
2026-04-15 10:29 23.18040 122.80327 31774 ft 500 kts 49°
2026-04-15 10:29 23.19494 122.82337 31900 ft 500 kts 49°
2026-04-15 10:29 23.22348 122.86276 32144 ft 499 kts 49°
2026-04-15 10:30 23.23771 122.88240 32264 ft 499 kts 49°
2026-04-15 10:30 23.25922 122.91207 32432 ft 499 kts 49°
2026-04-15 10:30 23.28078 122.94179 32652 ft 498 kts 50°
2026-04-15 10:30 23.30221 122.97139 32858 ft 498 kts 50°
2026-04-15 10:31 23.32351 123.00094 32930 ft 501 kts 50°
2026-04-15 10:31 23.36451 123.06256 32924 ft 502 kts 54°
2026-04-15 10:32 23.40333 123.12596 32924 ft 503 kts 54°
2026-04-15 10:32 23.44191 123.18893 32921 ft 502 kts 54°
2026-04-15 10:33 23.48160 123.25184 32925 ft 502 kts 53°
2026-04-15 10:33 23.52149 123.31444 32933 ft 502 kts 53°
2026-04-15 10:34 23.56084 123.37693 32917 ft 502 kts 53°
2026-04-15 10:34 23.60035 123.44003 32915 ft 503 kts 53°
2026-04-15 10:35 23.63968 123.50270 32920 ft 503 kts 53°
2026-04-15 10:35 23.67926 123.56587 32920 ft 503 kts 53°
2026-04-15 10:36 23.71855 123.62862 32924 ft 503 kts 53°
2026-04-15 10:36 23.75817 123.69190 32901 ft 504 kts 53°
2026-04-15 10:37 23.79785 123.75539 32914 ft 504 kts 53°
2026-04-15 10:37 23.83728 123.81849 32924 ft 504 kts 53°
2026-04-15 10:38 23.87652 123.88154 32924 ft 504 kts 53°
2026-04-15 10:38 23.91609 123.94520 32930 ft 504 kts 53°
2026-04-15 10:39 23.95321 124.00495 32921 ft 505 kts 53°
2026-04-15 10:39 23.99337 124.06796 32922 ft 504 kts 52°
2026-04-15 10:40 24.03410 124.13016 32923 ft 504 kts 52°
2026-04-15 10:40 24.07469 124.19236 32920 ft 505 kts 52°
2026-04-15 10:41 24.11522 124.25523 32912 ft 505 kts 52°
2026-04-15 10:41 24.15561 124.31820 32909 ft 504 kts 52°
2026-04-15 10:42 24.19600 124.38104 32910 ft 504 kts 52°
2026-04-15 10:42 24.23621 124.44353 32912 ft 504 kts 52°
2026-04-15 10:43 24.27662 124.50641 32916 ft 504 kts 52°
2026-04-15 10:43 24.31704 124.56940 32916 ft 504 kts 52°
2026-04-15 10:44 24.35717 124.63217 32925 ft 505 kts 52°
2026-04-15 10:44 24.39754 124.69529 32928 ft 505 kts 52°
2026-04-15 10:45 24.43793 124.75844 32927 ft 505 kts 52°
2026-04-15 10:45 24.47796 124.82124 32930 ft 505 kts 52°
2026-04-15 10:46 24.51828 124.88454 32929 ft 505 kts 52°
2026-04-15 10:46 24.55863 124.94789 32929 ft 505 kts 52°
2026-04-15 10:47 24.59869 125.01090 32918 ft 506 kts 52°
2026-04-15 10:47 24.63902 125.07454 32916 ft 506 kts 52°
2026-04-15 10:48 24.67903 125.13778 32890 ft 506 kts 52°
2026-04-15 10:48 24.71944 125.20153 32880 ft 506 kts 52°
2026-04-15 10:49 24.75954 125.26478 32872 ft 507 kts 52°
2026-04-15 10:49 24.79914 125.32901 32877 ft 507 kts 55°
2026-04-15 10:50 24.83643 125.39512 32885 ft 508 kts 56°
2026-04-15 10:50 24.87309 125.46188 32894 ft 508 kts 56°
2026-04-15 10:51 24.91007 125.52797 32905 ft 508 kts 56°
2026-04-15 10:51 24.94767 125.59413 32922 ft 508 kts 56°
2026-04-15 10:52 24.98500 125.65992 32946 ft 508 kts 56°
2026-04-15 10:52 25.02236 125.72622 32934 ft 509 kts 56°
2026-04-15 10:53 25.05954 125.79241 32927 ft 509 kts 56°
2026-04-15 10:53 25.09694 125.85908 32930 ft 509 kts 56°
2026-04-15 10:54 25.13404 125.92515 32934 ft 509 kts 56°
2026-04-15 10:54 25.17138 125.99182 32940 ft 509 kts 55°
2026-04-15 10:55 25.20846 126.05809 32933 ft 509 kts 56°
2026-04-15 10:55 25.24556 126.12449 32932 ft 509 kts 56°
2026-04-15 10:56 25.28289 126.19135 32932 ft 509 kts 56°
2026-04-15 10:56 25.31984 126.25764 32937 ft 509 kts 56°
2026-04-15 10:57 25.35698 126.32447 32936 ft 510 kts 56°
2026-04-15 10:57 25.41266 126.42484 32934 ft 510 kts 56°
2026-04-15 10:58 25.44982 126.49183 32931 ft 510 kts 56°
2026-04-15 10:58 25.48671 126.55847 32949 ft 510 kts 56°
2026-04-15 10:59 25.52371 126.62560 32941 ft 510 kts 56°
2026-04-15 10:59 25.56038 126.69240 32937 ft 510 kts 56°
2026-04-15 11:00 25.59730 126.75970 32930 ft 510 kts 56°
2026-04-15 11:00 25.63392 126.82671 32934 ft 510 kts 56°
2026-04-15 11:01 25.67081 126.89431 32946 ft 511 kts 56°
2026-04-15 11:01 25.70744 126.96147 32940 ft 511 kts 56°
2026-04-15 11:02 25.74426 127.02902 32931 ft 511 kts 56°
2026-04-15 11:02 25.78103 127.09663 32933 ft 511 kts 56°
2026-04-15 11:03 25.81762 127.16387 32935 ft 511 kts 56°
2026-04-15 11:03 25.85422 127.23126 32936 ft 511 kts 56°
2026-04-15 11:04 25.89088 127.29896 32936 ft 511 kts 56°
2026-04-15 11:04 25.92752 127.36678 32937 ft 511 kts 56°
2026-04-15 11:05 25.96394 127.43423 32936 ft 511 kts 56°
2026-04-15 11:05 26.00057 127.50207 32939 ft 511 kts 56°
2026-04-15 11:06 26.03713 127.56990 32897 ft 511 kts 56°
2026-04-15 11:06 26.07362 127.63789 32887 ft 511 kts 56°
2026-04-15 11:07 26.10988 127.70561 32885 ft 512 kts 56°
2026-04-15 11:07 26.14674 127.77351 32938 ft 510 kts 52°
2026-04-15 11:08 26.19365 127.83146 32935 ft 498 kts 34°
2026-04-15 11:08 26.24666 127.88078 32929 ft 499 kts 34°
2026-04-15 11:09 26.29998 127.93051 32907 ft 499 kts 35°
2026-04-15 11:09 26.35312 127.98007 32922 ft 499 kts 34°
2026-04-15 11:10 26.40630 128.02992 32927 ft 499 kts 35°
2026-04-15 11:10 26.45951 128.07988 32936 ft 499 kts 35°
2026-04-15 11:11 26.51246 128.12952 32952 ft 499 kts 34°
2026-04-15 11:11 26.56572 128.17958 32950 ft 499 kts 34°
2026-04-15 11:12 26.61901 128.22975 32942 ft 499 kts 34°
2026-04-15 11:12 26.67197 128.27957 32941 ft 499 kts 34°
2026-04-15 11:13 26.72525 128.32984 32944 ft 500 kts 34°
2026-04-15 11:13 26.77815 128.37979 32930 ft 500 kts 34°
2026-04-15 11:14 26.83135 128.43006 32924 ft 500 kts 34°
2026-04-15 11:14 26.88455 128.48045 32949 ft 501 kts 34°
2026-04-15 11:15 26.92886 128.52253 32939 ft 501 kts 34°
2026-04-15 11:15 26.99097 128.58145 32934 ft 502 kts 34°
2026-04-15 11:16 27.04456 128.63233 32958 ft 503 kts 34°
2026-04-15 11:16 27.09762 128.68285 32937 ft 503 kts 34°
2026-04-15 11:17 27.14205 128.72520 32934 ft 503 kts 34°
2026-04-15 11:17 27.19564 128.77628 32936 ft 503 kts 34°
2026-04-15 11:18 27.24917 128.82728 32962 ft 504 kts 34°
2026-04-15 11:18 27.30254 128.87836 32947 ft 504 kts 34°
2026-04-15 11:19 27.35554 128.92920 32941 ft 504 kts 34°
2026-04-15 11:19 27.40890 128.98037 32951 ft 504 kts 34°
2026-04-15 11:20 27.46245 129.03177 32942 ft 504 kts 34°
2026-04-15 11:20 27.51565 129.08293 32937 ft 504 kts 35°
2026-04-15 11:21 27.56380 129.14183 32926 ft 513 kts 45°
2026-04-15 11:21 27.60912 129.20361 32932 ft 513 kts 45°
2026-04-15 11:22 27.65459 129.26564 32934 ft 513 kts 45°
2026-04-15 11:22 27.70010 129.32760 32938 ft 513 kts 45°
2026-04-15 11:23 27.74543 129.38943 32952 ft 513 kts 45°
2026-04-15 11:23 27.79104 129.45177 32946 ft 513 kts 45°
2026-04-15 11:24 27.83636 129.51375 32941 ft 513 kts 45°
2026-04-15 11:24 27.88200 129.57632 32940 ft 514 kts 45°
2026-04-15 11:25 27.92716 129.63838 32934 ft 514 kts 45°
2026-04-15 11:25 27.97268 129.70101 32937 ft 514 kts 45°
2026-04-15 11:26 28.01794 129.76337 32933 ft 514 kts 45°
2026-04-15 11:26 28.06327 129.82594 32949 ft 514 kts 45°
2026-04-15 11:27 28.10871 129.88865 32935 ft 514 kts 45°
2026-04-15 11:27 28.15397 129.95115 32904 ft 514 kts 45°
2026-04-15 11:28 28.19935 130.01393 32919 ft 514 kts 45°
2026-04-15 11:28 28.24473 130.07683 32902 ft 515 kts 45°
2026-04-15 11:29 28.28983 130.13956 32904 ft 515 kts 45°
2026-04-15 11:29 28.33507 130.20265 32910 ft 515 kts 45°
2026-04-15 11:30 28.38038 130.26573 32913 ft 516 kts 45°
2026-04-15 11:30 28.42571 130.32895 32918 ft 516 kts 45°
2026-04-15 11:31 28.47105 130.39240 32916 ft 516 kts 45°
2026-04-15 11:31 28.51607 130.45529 32935 ft 516 kts 45°
2026-04-15 11:32 28.56151 130.51891 32909 ft 517 kts 45°
2026-04-15 11:32 28.60660 130.58226 32904 ft 517 kts 45°
2026-04-15 11:33 28.65194 130.64604 32948 ft 518 kts 45°
2026-04-15 11:33 28.69736 130.71006 32915 ft 518 kts 45°
2026-04-15 11:34 28.74268 130.77384 32904 ft 519 kts 45°
2026-04-15 11:34 28.78791 130.83771 32903 ft 520 kts 45°
2026-04-15 11:35 28.83314 130.90177 32911 ft 520 kts 45°
2026-04-15 11:35 28.87861 130.96618 32897 ft 521 kts 45°
2026-04-15 11:36 28.92417 131.03082 32901 ft 521 kts 45°
2026-04-15 11:36 28.96933 131.09501 32927 ft 521 kts 45°
2026-04-15 11:37 29.01484 131.15974 32894 ft 522 kts 45°
2026-04-15 11:37 29.06034 131.22460 32900 ft 522 kts 45°
2026-04-15 11:38 29.10589 131.28959 32897 ft 522 kts 45°
2026-04-15 11:38 29.15096 131.35414 32893 ft 522 kts 45°
2026-04-15 11:39 29.19638 131.41919 32891 ft 522 kts 45°
2026-04-15 11:39 29.24177 131.48423 32914 ft 522 kts 45°
2026-04-15 11:40 29.28702 131.54939 32906 ft 523 kts 45°
2026-04-15 11:40 29.33220 131.61455 32886 ft 523 kts 45°
2026-04-15 11:41 29.37738 131.67950 32927 ft 523 kts 45°
2026-04-15 11:41 29.42283 131.74497 32910 ft 524 kts 45°
2026-04-15 11:42 29.46794 131.81024 32901 ft 524 kts 45°
2026-04-15 11:42 29.51332 131.87598 32909 ft 524 kts 45°
2026-04-15 11:43 29.55857 131.94163 32898 ft 524 kts 45°
2026-04-15 11:43 29.60363 132.00706 32876 ft 524 kts 45°
2026-04-15 11:44 29.64898 132.07304 32911 ft 524 kts 45°
2026-04-15 11:44 29.69456 132.13846 32897 ft 523 kts 43°
2026-04-15 11:45 29.74066 132.20252 32875 ft 523 kts 43°
2026-04-15 11:45 29.78723 132.26714 32909 ft 523 kts 43°
2026-04-15 11:46 29.83314 132.33166 32895 ft 523 kts 43°
2026-04-15 11:46 29.87926 132.39681 32883 ft 523 kts 43°
2026-04-15 11:47 29.92507 132.46164 32890 ft 523 kts 43°
2026-04-15 11:47 29.97121 132.52696 32874 ft 524 kts 43°
2026-04-15 11:48 30.01730 132.59218 32871 ft 524 kts 43°
2026-04-15 11:48 30.06314 132.65705 32894 ft 524 kts 43°
2026-04-15 11:49 30.10937 132.72266 32875 ft 525 kts 43°
2026-04-15 11:49 30.15516 132.78784 32869 ft 525 kts 43°
2026-04-15 11:50 30.20127 132.85355 32887 ft 525 kts 43°
2026-04-15 11:50 30.24709 132.91908 32875 ft 526 kts 43°
2026-04-15 11:51 30.29318 132.98497 32874 ft 526 kts 43°
2026-04-15 11:51 30.33908 133.05058 32896 ft 526 kts 43°
2026-04-15 11:52 30.38482 133.11635 32871 ft 526 kts 43°
2026-04-15 11:52 30.43087 133.18249 32882 ft 526 kts 43°
2026-04-15 11:53 30.47667 133.24832 32854 ft 526 kts 43°
2026-04-15 11:53 30.52260 133.31447 32856 ft 526 kts 43°
2026-04-15 11:54 30.56846 133.38068 32850 ft 526 kts 43°
2026-04-15 11:54 30.61424 133.44706 32866 ft 526 kts 43°
2026-04-15 11:55 30.65980 133.51314 32845 ft 526 kts 43°
2026-04-15 11:55 30.70534 133.57921 32858 ft 526 kts 43°
2026-04-15 11:56 30.75129 133.64591 32869 ft 526 kts 43°
2026-04-15 11:56 30.79691 133.71241 32857 ft 526 kts 43°
2026-04-15 11:57 30.86524 133.81206 32881 ft 526 kts 43°
2026-04-15 11:58 30.91091 133.87883 32857 ft 526 kts 43°
2026-04-15 11:58 30.95626 133.94523 32852 ft 526 kts 43°
2026-04-15 11:59 31.00184 134.01214 32861 ft 526 kts 43°
2026-04-15 11:59 31.04711 134.07862 32835 ft 526 kts 43°
2026-04-15 12:00 31.09259 134.14552 32865 ft 526 kts 43°
2026-04-15 12:00 31.13799 134.21256 32842 ft 526 kts 43°
2026-04-15 12:01 31.18322 134.27940 32818 ft 526 kts 43°
2026-04-15 12:01 31.22863 134.34658 32852 ft 527 kts 42°
2026-04-15 12:02 31.27410 134.41387 32834 ft 527 kts 42°
2026-04-15 12:02 31.31923 134.48086 32809 ft 527 kts 43°
2026-04-15 12:03 31.36465 134.54840 32830 ft 528 kts 43°
2026-04-15 12:03 31.41014 134.61612 32808 ft 528 kts 43°
2026-04-15 12:04 31.45516 134.68338 32841 ft 528 kts 43°
2026-04-15 12:04 31.50063 134.75138 32828 ft 527 kts 43°
2026-04-15 12:05 31.54562 134.81881 32815 ft 527 kts 43°
2026-04-15 12:05 31.59090 134.88664 32844 ft 527 kts 43°
2026-04-15 12:06 31.63586 134.95418 32835 ft 526 kts 43°
2026-04-15 12:06 31.68071 135.02175 32807 ft 526 kts 43°
2026-04-15 12:07 31.71811 135.07827 32802 ft 527 kts 44°
2026-04-15 12:07 31.76037 135.14941 32798 ft 532 kts 49°
2026-04-15 12:08 31.79965 135.22319 32796 ft 534 kts 50°
2026-04-15 12:08 31.84546 135.30931 32793 ft 533 kts 49°
2026-04-15 12:09 31.87906 135.37018 32791 ft 532 kts 48°
2026-04-15 12:09 31.91972 135.44284 32804 ft 531 kts 48°
2026-04-15 12:10 31.96015 135.51583 32792 ft 531 kts 49°
2026-04-15 12:10 32.00018 135.58893 32807 ft 531 kts 49°
2026-04-15 12:11 32.03999 135.66180 32800 ft 530 kts 49°
2026-04-15 12:11 32.07980 135.73470 32793 ft 530 kts 49°
2026-04-15 12:12 32.11971 135.80775 32799 ft 529 kts 49°
2026-04-15 12:12 32.15963 135.88087 32798 ft 529 kts 49°
2026-04-15 12:13 32.19938 135.95402 32798 ft 529 kts 49°
2026-04-15 12:13 32.23911 136.02730 32796 ft 529 kts 49°
2026-04-15 12:14 32.27879 136.10063 32792 ft 529 kts 50°
2026-04-15 12:14 32.31830 136.17371 32802 ft 529 kts 50°
2026-04-15 12:15 32.35778 136.24660 32798 ft 529 kts 50°
2026-04-15 12:15 32.39750 136.32001 32796 ft 528 kts 50°
2026-04-15 12:16 32.43711 136.39347 32807 ft 528 kts 50°
2026-04-15 12:16 32.47635 136.46652 32802 ft 528 kts 50°
2026-04-15 12:17 32.51581 136.54013 32798 ft 528 kts 50°
2026-04-15 12:17 32.55501 136.61348 32800 ft 528 kts 50°
2026-04-15 12:18 32.59439 136.68710 32791 ft 528 kts 50°
2026-04-15 12:18 32.63380 136.76085 32789 ft 528 kts 50°
2026-04-15 12:19 32.67309 136.83454 32805 ft 528 kts 51°
2026-04-15 12:19 32.71194 136.90792 32802 ft 528 kts 51°
2026-04-15 12:20 32.75107 136.98181 32813 ft 528 kts 51°
2026-04-15 12:20 32.79021 137.05577 32826 ft 527 kts 51°
2026-04-15 12:21 32.82899 137.12933 32806 ft 524 kts 51°
2026-04-15 12:21 32.86770 137.20273 32801 ft 523 kts 51°
2026-04-15 12:22 32.90642 137.27614 32787 ft 523 kts 51°
2026-04-15 12:22 32.94486 137.34939 32796 ft 523 kts 52°
2026-04-15 12:23 32.98322 137.42266 32795 ft 523 kts 52°
2026-04-15 12:23 33.02164 137.49616 32796 ft 523 kts 52°
2026-04-15 12:24 33.06013 137.56990 32791 ft 523 kts 52°
2026-04-15 12:24 33.09828 137.64320 32812 ft 522 kts 52°
2026-04-15 12:25 33.13652 137.71688 32811 ft 521 kts 52°
2026-04-15 12:25 33.17476 137.79063 32803 ft 521 kts 53°
2026-04-15 12:26 33.21268 137.86384 32810 ft 521 kts 53°
2026-04-15 12:26 33.25080 137.93762 32812 ft 520 kts 53°
2026-04-15 12:27 33.28868 138.01100 32808 ft 520 kts 53°
2026-04-15 12:27 33.32670 138.08488 32817 ft 520 kts 53°
2026-04-15 12:28 33.36438 138.15834 32812 ft 520 kts 53°
2026-04-15 12:28 33.40221 138.23216 32808 ft 520 kts 53°
2026-04-15 12:29 33.44006 138.30612 32802 ft 520 kts 53°
2026-04-15 12:29 33.47769 138.37973 32800 ft 520 kts 54°
2026-04-15 12:30 33.51528 138.45347 32817 ft 520 kts 54°
2026-04-15 12:30 33.55296 138.52770 32808 ft 521 kts 54°
2026-04-15 12:31 33.59068 138.60205 32811 ft 521 kts 54°
2026-04-15 12:31 33.62821 138.67591 32827 ft 521 kts 54°
2026-04-15 12:32 33.66576 138.75003 32818 ft 521 kts 54°
2026-04-15 12:32 33.70341 138.82468 32815 ft 521 kts 54°
2026-04-15 12:33 33.74098 138.89921 32819 ft 521 kts 55°
2026-04-15 12:33 33.77852 138.97380 32810 ft 521 kts 55°
2026-04-15 12:34 33.81587 139.04827 32833 ft 522 kts 55°
2026-04-15 12:34 33.85338 139.12320 32836 ft 522 kts 55°
2026-04-15 12:35 33.89090 139.19834 32821 ft 523 kts 56°
2026-04-15 12:35 33.92807 139.27304 32822 ft 523 kts 56°
2026-04-15 12:36 33.96558 139.34843 32818 ft 524 kts 56°
2026-04-15 12:36 34.00308 139.42383 32827 ft 524 kts 56°
2026-04-15 12:37 34.04029 139.49882 32816 ft 524 kts 56°
2026-04-15 12:37 34.07917 139.57328 32813 ft 520 kts 47°
2026-04-15 12:38 34.12445 139.64156 32813 ft 520 kts 46°
2026-04-15 12:38 34.16959 139.70941 32815 ft 521 kts 47°
2026-04-15 12:39 34.21470 139.77747 32826 ft 521 kts 47°
2026-04-15 12:39 34.23743 139.81183 32640 ft 522 kts 47°
2026-04-15 12:39 34.26035 139.84647 31383 ft 533 kts 48°
2026-04-15 12:39 34.28341 139.88129 30468 ft 536 kts 49°
2026-04-15 12:40 34.30651 139.91630 29614 ft 527 kts 49°
2026-04-15 12:40 34.32934 139.95101 28201 ft 526 kts 49°
2026-04-15 12:40 34.35217 139.98574 26871 ft 524 kts 49°
2026-04-15 12:40 34.37464 140.01999 25995 ft 513 kts 49°
2026-04-15 12:41 34.39647 140.05328 25415 ft 498 kts 49°
2026-04-15 12:41 34.41747 140.08531 24752 ft 486 kts 49°
2026-04-15 12:41 34.43825 140.11704 24123 ft 474 kts 50°
2026-04-15 12:41 34.45828 140.14815 23504 ft 464 kts 53°
2026-04-15 12:42 34.47559 140.18058 22839 ft 453 kts 56°
2026-04-15 12:42 34.49208 140.21259 22281 ft 445 kts 57°
2026-04-15 12:42 34.50849 140.24438 21720 ft 443 kts 56°
2026-04-15 12:42 34.52485 140.27599 21164 ft 440 kts 56°
2026-04-15 12:43 34.54118 140.30753 20635 ft 438 kts 56°
2026-04-15 12:43 34.55714 140.33842 20088 ft 435 kts 57°
2026-04-15 12:43 34.57315 140.36948 19581 ft 432 kts 57°
2026-04-15 12:43 34.58902 140.40036 19072 ft 429 kts 57°
2026-04-15 12:44 34.60480 140.43104 18597 ft 427 kts 57°
2026-04-15 12:44 34.62048 140.46155 18100 ft 424 kts 57°
2026-04-15 12:44 34.63604 140.49186 17599 ft 421 kts 57°
2026-04-15 12:44 34.65130 140.52159 17154 ft 418 kts 57°
2026-04-15 12:45 34.66666 140.55154 16708 ft 415 kts 57°
2026-04-15 12:45 34.68190 140.58127 16263 ft 412 kts 57°
2026-04-15 12:45 34.69707 140.61079 15829 ft 409 kts 56°
2026-04-15 12:45 34.71458 140.63725 15382 ft 404 kts 43°
2026-04-15 12:46 34.73623 140.65865 14944 ft 399 kts 30°
2026-04-15 12:46 34.76074 140.67396 14481 ft 393 kts 18°
2026-04-15 12:46 34.78690 140.68277 14017 ft 387 kts
2026-04-15 12:46 34.81355 140.68647 13569 ft 384 kts
2026-04-15 12:47 34.84010 140.68973 13130 ft 383 kts
2026-04-15 12:47 34.86657 140.69299 12636 ft 381 kts
2026-04-15 12:47 34.89285 140.69622 12137 ft 378 kts
2026-04-15 12:47 34.91872 140.69941 11931 ft 367 kts
2026-04-15 12:48 34.94370 140.70255 11803 ft 355 kts
2026-04-15 12:48 34.96789 140.70561 11677 ft 342 kts
2026-04-15 12:48 34.99100 140.70853 11553 ft 331 kts
2026-04-15 12:48 35.00633 140.71047 11472 ft 324 kts
2026-04-15 12:49 35.03537 140.71413 11300 ft 310 kts
2026-04-15 12:49 35.05643 140.71692 11179 ft 300 kts
2026-04-15 12:49 35.07578 140.72506 11055 ft 291 kts 30°
2026-04-15 12:49 35.09104 140.74043 10967 ft 279 kts 52°
2026-04-15 12:50 35.10284 140.75912 10985 ft 278 kts 53°
2026-04-15 12:50 35.11467 140.77788 10986 ft 278 kts 53°
2026-04-15 12:50 35.12657 140.79661 10986 ft 278 kts 53°
2026-04-15 12:50 35.13830 140.81510 10986 ft 279 kts 53°
2026-04-15 12:51 35.15023 140.83396 10987 ft 279 kts 53°
2026-04-15 12:51 35.16198 140.85255 10986 ft 279 kts 53°
2026-04-15 12:51 35.17387 140.87134 10986 ft 278 kts 53°
2026-04-15 12:51 35.18575 140.89005 10984 ft 278 kts 53°
2026-04-15 12:52 35.19761 140.90865 10988 ft 277 kts 53°
2026-04-15 12:52 35.21047 140.92652 10832 ft 284 kts 38°
2026-04-15 12:52 35.22780 140.93763 10495 ft 283 kts 12°
2026-04-15 12:52 35.24714 140.93878 10027 ft 283 kts 347°
2026-04-15 12:53 35.26525 140.92983 9525 ft 281 kts 322°
2026-04-15 12:53 35.27886 140.91287 9016 ft 280 kts 303°
2026-04-15 12:53 35.29061 140.89356 8488 ft 284 kts 303°
2026-04-15 12:53 35.30238 140.87425 8008 ft 288 kts 304°
2026-04-15 12:54 35.31438 140.85458 7621 ft 287 kts 305°
2026-04-15 12:54 35.32634 140.83498 7245 ft 285 kts 305°
2026-04-15 12:54 35.33823 140.81551 6883 ft 284 kts 306°
2026-04-15 12:54 35.34991 140.79634 6524 ft 283 kts 306°
2026-04-15 12:55 35.36169 140.77696 6148 ft 282 kts 306°
2026-04-15 12:55 35.37339 140.75773 5759 ft 281 kts 306°
2026-04-15 12:55 35.38504 140.73854 5391 ft 280 kts 306°
2026-04-15 12:55 35.39663 140.71939 5041 ft 278 kts 305°
2026-04-15 12:56 35.40786 140.70082 4982 ft 264 kts 305°
2026-04-15 12:56 35.41835 140.68352 4990 ft 248 kts 305°
2026-04-15 12:56 35.42534 140.67199 4997 ft 250 kts 305°
2026-04-15 12:56 35.43574 140.65495 4994 ft 253 kts 308°
2026-04-15 12:57 35.44769 140.63915 5000 ft 252 kts 317°
2026-04-15 12:57 35.46139 140.62577 4999 ft 251 kts 326°
2026-04-15 12:57 35.47623 140.61456 5000 ft 251 kts 329°
2026-04-15 12:57 35.49137 140.60388 5000 ft 251 kts 329°
2026-04-15 12:58 35.50643 140.59316 5003 ft 251 kts 329°
2026-04-15 12:58 35.52150 140.58236 5003 ft 250 kts 329°
2026-04-15 12:58 35.53688 140.57132 5007 ft 259 kts 329°
2026-04-15 12:58 35.55235 140.56022 5006 ft 261 kts 329°
2026-04-15 12:59 35.58382 140.53764 4690 ft 261 kts 329°
2026-04-15 12:59 35.59945 140.52641 4353 ft 259 kts 329°
2026-04-15 12:59 35.61495 140.51527 4007 ft 258 kts 329°
2026-04-15 13:00 35.63047 140.50411 3665 ft 258 kts 328°
2026-04-15 13:00 35.64592 140.49299 3328 ft 257 kts 328°
2026-04-15 13:00 35.66138 140.48187 2968 ft 254 kts 328°
2026-04-15 13:00 35.67597 140.47138 2687 ft 237 kts 328°
2026-04-15 13:01 35.68979 140.46142 2364 ft 224 kts 328°
2026-04-15 13:01 35.70268 140.45214 2078 ft 206 kts 328°
2026-04-15 13:01 35.71444 140.44367 1822 ft 186 kts 328°
2026-04-15 13:01 35.72505 140.43602 1557 ft 169 kts 327°
2026-04-15 13:02 35.73494 140.42888 1342 ft 162 kts 327°
2026-04-15 13:02 35.74452 140.42196 1123 ft 158 kts 329°
2026-04-15 13:02 35.75381 140.41525 926 ft 151 kts 331°
2026-04-15 13:02 35.76273 140.40880 719 ft 147 kts 332°
2026-04-15 13:03 35.77151 140.40246 520 ft 145 kts 331°
2026-04-15 13:03 35.78019 140.39616 314 ft 144 kts 332°
2026-04-15 13:03 35.78879 140.38993 148 ft 139 kts 331°
2026-04-15 13:03 35.79568 140.38498 144 ft 76 kts 329°
2026-04-15 13:04 35.79835 140.38304 145 ft 29 kts 330°
2026-04-15 13:04 35.79992 140.38184 146 ft 24 kts 321°
2026-04-15 13:04 35.80090 140.38050 146 ft 20 kts 304°
2026-04-15 13:04 35.80149 140.37913 144 ft 16 kts 281°
2026-04-15 13:05 35.80115 140.37853 144 ft 2 kts 191°
2026-04-15 13:05 35.80065 140.37882 144 ft 17 kts 150°
2026-04-15 13:05 35.79922 140.37985 144 ft 27 kts 149°
2026-04-15 13:05 35.79774 140.38092 144 ft 23 kts 149°
2026-04-15 13:06 35.79650 140.38182 144 ft 19 kts 149°
2026-04-15 13:06 35.79550 140.38254 144 ft 15 kts 150°
2026-04-15 13:06 35.79522 140.38274 144 ft 0 kts 150°
2026-04-15 13:07 35.75790 140.41229 828 ft 149 kts 331°
2026-04-15 13:08 35.78834 140.39026 148 ft 141 kts 331°
2026-04-15 13:08 35.78530 140.39248 205 ft 144 kts 330°
2026-04-15 13:08 35.79064 140.38863 147 ft 133 kts 330°
2026-04-15 13:08 35.78441 140.39314 227 ft 144 kts 331°
2026-04-15 13:09 35.79268 140.38716 146 ft 121 kts 328°
2026-04-15 13:09 35.78001 140.39629 316 ft 144 kts 332°
2026-04-15 13:09 35.78862 140.39005 148 ft 140 kts 331°
2026-04-15 13:09 35.79559 140.38504 144 ft 78 kts 329°
2026-04-15 13:10 35.79832 140.38306 145 ft 29 kts 330°
2026-04-15 13:10 35.78614 140.39186 175 ft 144 kts 330°
2026-04-15 13:10 35.79395 140.38623 144 ft 104 kts 329°
2026-04-15 13:10 35.78027 140.39611 310 ft 144 kts 332°
2026-04-15 13:11 35.78840 140.39022 148 ft 140 kts 331°
2026-04-15 13:11 35.79547 140.38512 144 ft 80 kts 329°
2026-04-15 13:11 35.79827 140.38310 145 ft 29 kts 330°
2026-04-15 13:11 35.79987 140.38190 148 ft 24 kts 322°
2026-04-15 13:12 35.80087 140.38054 146 ft 20 kts 304°
2026-04-15 13:12 35.79630 140.38452 143 ft 65 kts 329°
2026-04-15 13:12 35.77760 140.39802 368 ft 145 kts 331°